EST,Max TemperatureF,Mean TemperatureF,Min TemperatureF,Max Dew PointF,MeanDew PointF,Min DewpointF,Max Humidity, Mean Humidity, Min Humidity, Max Sea Level PressureIn, Mean Sea Level PressureIn, Min Sea Level PressureIn, Max VisibilityMiles, Mean VisibilityMiles, Min VisibilityMiles, Max Wind SpeedMPH, Mean Wind SpeedMPH, Max Gust SpeedMPH,PrecipitationIn, CloudCover, Events, WindDirDegrees
2013-2-1,21,15,9,9,3,-2,69,60,51,30.52,30.42,30.22,10,10,4,25,9,37,T,3,Snow,273
2013-2-2,35,27,19,28,21,9,96,79,61,30.36,30.18,30.04,10,5,0,15,6,20,0.06,8,Fog-Snow,210
2013-2-3,32,27,22,25,20,15,81,72,63,30.19,30.09,29.99,10,8,2,20,7,26,0.01,7,Snow,292
2013-2-4,46,33,19,40,28,16,92,69,45,30.17,29.97,29.87,10,9,3,16,6,24,0.11,7,Rain,197
2013-2-5,51,42,33,39,33,28,92,69,46,30.06,29.94,29.89,10,8,2,15,7,20,0.00,6,,271
2013-2-6,44,35,26,30,28,25,92,75,57,30.29,30.22,30.08,10,7,4,8,3,10,0.00,3,,12
2013-2-7,66,49,32,38,34,28,89,62,34,30.19,30.02,29.85,10,9,5,12,4,15,0.00,1,,174
2013-2-8,54,44,34,48,35,26,93,74,54,30.37,30.09,29.86,10,9,3,21,10,28,0.13,8,Rain,306
2013-2-9,46,37,27,27,23,21,81,59,37,30.43,30.34,30.20,10,10,9,10,5,14,0.00,1,,74
2013-2-10,58,48,38,50,36,21,85,62,39,30.19,30.00,29.83,10,10,5,18,7,33,0.18,5,Rain,149
2013-2-11,56,47,38,52,37,25,93,64,35,30.13,29.95,29.83,10,10,10,24,11,32,0.00,2,,235
2013-2-12,51,40,29,29,26,21,85,59,32,30.19,30.08,29.92,10,10,10,9,2,13,0.00,0,,250
2013-2-13,43,38,32,34,30,26,92,73,53,29.96,29.87,29.80,10,6,0,14,5,17,0.06,6,Fog-Snow,325
2013-2-14,57,45,33,35,33,30,89,65,41,30.02,29.95,29.88,10,9,7,20,8,25,0.00,3,,216
2013-2-15,45,37,28,33,26,16,82,60,37,30.21,30.12,30.04,10,10,10,20,7,29,T,5,Rain,301
2013-2-16,35,29,23,18,13,6,74,53,32,30.19,30.15,30.11,10,10,10,22,8,28,0.00,3,,305
2013-2-17,39,30,20,13,12,10,68,50,32,30.29,30.23,30.17,10,10,10,12,5,17,0.00,1,,279
2013-2-18,62,47,31,41,26,13,66,48,29,30.21,30.00,29.78,10,10,7,25,10,38,0.12,3,Rain,172
2013-2-19,48,36,24,43,27,13,86,63,40,30.22,29.94,29.73,10,9,4,26,15,37,0.20,6,Rain-Thunderstorm,266
2013-2-20,32,26,20,13,11,10,68,54,39,30.35,30.30,30.23,10,10,10,14,8,21,0.00,2,,305
2013-2-21,38,30,21,29,20,12,78,61,44,30.36,30.19,30.00,10,9,3,17,8,24,0.18,4,Rain,73
2013-2-22,49,41,32,40,35,28,100,83,66,30.02,29.96,29.87,10,6,2,16,7,25,0.13,7,Rain,191
2013-2-23,47,39,30,33,24,20,85,61,37,30.05,30.00,29.94,10,10,10,15,6,17,0.00,3,,295
2013-2-24,48,37,25,25,22,19,75,57,38,30.18,30.11,30.01,10,10,7,7,3,13,0.00,0,,329
2013-2-25,52,42,31,24,22,21,69,50,30,30.15,30.03,29.81,10,10,10,17,9,24,0.00,1,,76
2013-2-26,51,46,41,49,41,22,93,67,40,29.77,29.48,29.37,10,6,2,26,9,36,0.63,8,Rain-Thunderstorm,176
2013-2-27,41,38,34,36,31,26,89,74,59,29.81,29.74,29.61,10,9,3,21,11,29,0.03,8,Rain-Snow,233
2013-2-28,38,36,33,34,30,28,89,83,76,30.01,29.91,29.80,10,9,4,17,11,22,T,8,Snow,270